Seale, AL

3:57 PM CST on February 06, 2016 (GMT -0600)
Lawson Army Air Field

Weather History for KLSF - March, 2013

Change the Weather History Date:

Wednesday, March 20, 2013

  Actual Average Record
Temperature  
Mean Temperature 52 °F -  
Max Temperature 63 °F 69 °F 86 °F (2004)
Min Temperature 39 °F 41 °F 37 °F (2005)
Degree Days  
Heating Degree Days 13    
Growing Degree Days 2 (Base 50)    
Moisture  
Dew Point 29 °F    
Average Humidity 48    
Maximum Humidity 88    
Minimum Humidity 24    
Precipitation  
Precipitation 0.00 in - - ()
Sea Level Pressure  
Sea Level Pressure 30.04 in    
Wind  
Wind Speed 4 mph (NNW)    
Max Wind Speed 10 mph    
Max Gust Speed 17 mph    
Visibility 10 miles    
Events      
Averages and records for this station are not official NWS values.
T = Trace of Precipitation, MM = Missing Value Source: NWS Daily Summary

Daily Weather History Graph

Daily Weather History Graph

Search for Another Location

Airport or City:

Trip Planner

Search our weather history database for the weather conditions in past years. The results will help you decide how hot, cold, wet, or windy it might be!

Date:

Astronomy

Mar. 20, 2013 Rise Set
Actual Time 7:43 AM EDT 7:51 PM EDT
Civil Twilight 7:18 AM EDT 8:16 PM EDT
Nautical Twilight 6:50 AM EDT 8:44 PM EDT
Astronomical Twilight 6:21 AM EDT 9:13 PM EDT
Moon 1:44 PM EDT (3/20) 3:04 AM EDT (3/20)
Length of Visible Light 12h 57m
Length of Day
12h 08m
First Quarter, 59% of the Moon is Illuminated
Mar 20
First Quarter
Mar 27
Full
Apr 3
Last Quarter
Apr 10
New
Apr 18
First Quarter

Hourly Weather History & Observations

Time (EDT) Temp. Windchill Dew Point Humidity Pressure Visibility Wind Dir Wind Speed Gust Speed Precip Events Conditions
12:58 AM 48.2 °F - 37.4 °F 66% 30.06 in 10.0 mi Calm Calm - N/A   Clear
1:58 AM 45.7 °F - 37.2 °F 72% 30.05 in 10.0 mi ESE 1.2 mph - N/A   Clear
2:58 AM 41.7 °F 39.8 °F 38.3 °F 88% 30.05 in 10.0 mi WNW 3.5 mph - N/A   Clear
3:58 AM 44.2 °F 41.0 °F 34.3 °F 68% 30.04 in 10.0 mi North 5.8 mph - N/A   Clear
4:58 AM 44.4 °F 41.2 °F 31.8 °F 61% 30.05 in 10.0 mi North 5.8 mph - N/A   Clear
5:58 AM 44.6 °F 40.7 °F 29.7 °F 56% 30.06 in 10.0 mi NNW 6.9 mph - N/A   Clear
6:58 AM 41.7 °F 38.8 °F 28.8 °F 60% 30.10 in 10.0 mi NNW 4.6 mph - N/A   Partly Cloudy
7:58 AM 41.4 °F - 32.5 °F 71% 30.12 in 10.0 mi SSE 1.2 mph - N/A   Mostly Cloudy
8:58 AM 45.3 °F - 33.8 °F 64% 30.13 in 10.0 mi NNW 1.2 mph - N/A   Mostly Cloudy
9:58 AM 49.8 °F - 27.7 °F 42% 30.15 in 10.0 mi NNE 4.6 mph - N/A   Mostly Cloudy
10:58 AM 55.4 °F - 24.6 °F 30% 30.12 in 10.0 mi ENE 6.9 mph - N/A   Mostly Cloudy
11:58 AM 58.6 °F - 24.6 °F 27% 30.11 in 10.0 mi North 5.8 mph - N/A   Mostly Cloudy
12:58 PM 61.2 °F - 28.8 °F 29% 30.09 in 10.0 mi NNW 10.4 mph 17.3 mph N/A   Scattered Clouds
1:58 PM 60.8 °F - 26.2 °F 27% 30.06 in 10.0 mi NE 4.6 mph - N/A   Overcast
2:58 PM 62.1 °F - 26.8 °F 26% 30.04 in 10.0 mi NW 6.9 mph - N/A   Scattered Clouds
3:58 PM 61.9 °F - 25.2 °F 25% 30.01 in 10.0 mi NNW 10.4 mph - N/A   Partly Cloudy
4:58 PM 63.0 °F - 25.3 °F 24% 29.98 in 10.0 mi West 8.1 mph - N/A   Clear
5:58 PM 62.1 °F - 26.8 °F 26% 29.97 in 10.0 mi NW 9.2 mph - N/A   Clear
6:58 PM 60.8 °F - 25.3 °F 26% 29.97 in 10.0 mi WNW 9.2 mph - N/A   Clear
7:58 PM 54.0 °F - 24.6 °F 32% 29.96 in 10.0 mi WNW 10.4 mph - N/A   Clear
8:58 PM 46.9 °F - 25.9 °F 44% 29.96 in 10.0 mi West 2.3 mph - N/A   Clear
9:58 PM 43.5 °F - 30.9 °F 61% 29.96 in 10.0 mi ESE 2.3 mph - N/A   Clear
10:58 PM 41.0 °F - 30.0 °F 65% 29.96 in 10.0 mi East 1.2 mph - N/A   Clear
11:55 PM 39.2 °F 37.0 °F 28.4 °F 65% 29.96 in 10.0 mi WNW 3.5 mph - N/A   Clear